Time,TemperatureF,DewpointF,PressureIn,WindDirection,WindDirectionDegrees,WindSpeedMPH,WindSpeedGustMPH,Humidity,HourlyPrecipIn,Conditions,Clouds,dailyrainin,SoftwareType,DateUTC
2013-05-15 00:02:00,78.5,57.7,29.60,SW,234,24.0,25.0,49,0.00,,,0.00,Wunderground v.1.15,2013-05-15 05:02:00,
2013-05-15 00:03:00,78.5,57.7,29.60,WSW,240,24.0,25.0,49,0.00,,,0.00,Wunderground v.1.15,2013-05-15 05:03:00,
2013-05-15 00:05:00,78.5,57.7,29.60,SW,232,24.0,25.0,49,0.00,,,0.00,Wunderground v.1.15,2013-05-15 05:05:00,
2013-05-15 00:09:00,78.3,57.6,29.60,SW,228,24.0,28.0,49,0.00,,,0.00,Wunderground v.1.15,2013-05-15 05:09:00,
2013-05-15 00:10:00,78.3,57.6,29.60,SW,232,24.0,24.0,49,0.00,,,0.00,Wunderground v.1.15,2013-05-15 05:10:00,
2013-05-15 00:11:00,78.4,57.7,29.60,SW,232,24.0,24.0,49,0.00,,,0.00,Wunderground v.1.15,2013-05-15 05:11:00,
2013-05-15 00:13:00,78.4,57.7,29.60,SW,232,24.0,31.0,49,0.00,,,0.00,Wunderground v.1.15,2013-05-15 05:13:00,
2013-05-15 00:16:00,78.3,57.6,29.61,SW,227,25.0,31.0,49,0.00,,,0.00,Wunderground v.1.15,2013-05-15 05:16:00,
2013-05-15 00:17:00,78.2,58.0,29.60,SW,230,25.0,31.0,50,0.00,,,0.00,Wunderground v.1.15,2013-05-15 05:17:00,
2013-05-15 00:18:00,78.2,58.0,29.61,WSW,244,25.0,31.0,50,0.00,,,0.00,Wunderground v.1.15,2013-05-15 05:18:00,
2013-05-15 00:20:00,78.0,57.9,29.60,SW,229,24.0,24.0,50,0.00,,,0.00,Wunderground v.1.15,2013-05-15 05:20:00,
2013-05-15 00:23:00,77.9,57.8,29.60,WSW,248,24.0,26.0,50,0.00,,,0.00,Wunderground v.1.15,2013-05-15 05:23:00,
2013-05-15 00:24:00,77.9,57.8,29.60,SW,231,24.0,26.0,50,0.00,,,0.00,Wunderground v.1.15,2013-05-15 05:24:00,
2013-05-15 00:25:00,77.8,57.7,29.60,SW,230,24.0,30.0,50,0.00,,,0.00,Wunderground v.1.15,2013-05-15 05:25:00,
2013-05-15 00:26:00,77.8,57.7,29.60,SW,231,24.0,30.0,50,0.00,,,0.00,Wunderground v.1.15,2013-05-15 05:26:00,
2013-05-15 00:31:00,77.7,58.1,29.60,WSW,240,25.0,32.0,51,0.00,,,0.00,Wunderground v.1.15,2013-05-15 05:31:00,
2013-05-15 00:33:00,77.7,58.1,29.60,WSW,250,25.0,32.0,51,0.00,,,0.00,Wunderground v.1.15,2013-05-15 05:33:00,
2013-05-15 00:34:00,77.6,58.0,29.60,SW,232,25.0,32.0,51,0.00,,,0.00,Wunderground v.1.15,2013-05-15 05:34:00,
2013-05-15 00:38:00,77.6,58.0,29.60,SW,235,25.0,32.0,51,0.00,,,0.00,Wunderground v.1.15,2013-05-15 05:38:00,
2013-05-15 00:40:00,77.5,58.5,29.60,SW,232,25.0,25.0,52,0.00,,,0.00,Wunderground v.1.15,2013-05-15 05:40:00,
2013-05-15 00:41:00,77.5,58.5,29.60,SW,235,24.0,33.0,52,0.00,,,0.00,Wunderground v.1.15,2013-05-15 05:41:00,
2013-05-15 00:45:00,77.5,58.5,29.60,SW,235,24.0,33.0,52,0.00,,,0.00,Wunderground v.1.15,2013-05-15 05:45:00,
2013-05-15 00:46:00,77.4,58.4,29.61,WSW,249,23.0,33.0,52,0.00,,,0.00,Wunderground v.1.15,2013-05-15 05:46:00,
2013-05-15 00:48:00,77.4,58.4,29.61,SW,236,23.0,33.0,52,0.00,,,0.00,Wunderground v.1.15,2013-05-15 05:48:00,
2013-05-15 00:51:00,77.3,58.8,29.61,WSW,238,22.0,24.0,53,0.00,,,0.00,Wunderground v.1.15,2013-05-15 05:51:00,
2013-05-15 00:52:00,77.3,58.8,29.61,SW,234,22.0,24.0,53,0.00,,,0.00,Wunderground v.1.15,2013-05-15 05:52:00,
2013-05-15 00:54:00,77.3,58.8,29.61,WSW,238,22.0,26.0,53,0.00,,,0.00,Wunderground v.1.15,2013-05-15 05:54:00,
2013-05-15 00:55:00,77.3,58.8,29.61,SW,236,22.0,26.0,53,0.00,,,0.00,Wunderground v.1.15,2013-05-15 05:55:00,
2013-05-15 00:57:00,77.4,58.4,29.61,SW,230,23.0,26.0,52,0.00,,,0.00,Wunderground v.1.15,2013-05-15 05:57:00,
2013-05-15 00:58:00,77.5,58.5,29.61,SW,234,23.0,26.0,52,0.00,,,0.00,Wunderground v.1.15,2013-05-15 05:58:00,
2013-05-15 01:02:00,77.6,58.6,29.61,WSW,242,24.0,24.0,52,0.00,,,0.00,Wunderground v.1.15,2013-05-15 06:02:00,
2013-05-15 01:03:00,77.6,58.6,29.61,SW,230,23.0,24.0,52,0.00,,,0.00,Wunderground v.1.15,2013-05-15 06:03:00,
2013-05-15 01:04:00,77.6,58.6,29.61,SW,229,23.0,28.0,52,0.00,,,0.00,Wunderground v.1.15,2013-05-15 06:04:00,
2013-05-15 01:07:00,77.6,58.6,29.61,SW,229,23.0,28.0,52,0.00,,,0.00,Wunderground v.1.15,2013-05-15 06:07:00,
2013-05-15 01:09:00,77.5,59.0,29.61,WSW,246,22.0,28.0,53,0.00,,,0.00,Wunderground v.1.15,2013-05-15 06:09:00,
2013-05-15 01:10:00,77.4,58.9,29.61,SW,236,22.0,22.0,53,0.00,,,0.00,Wunderground v.1.15,2013-05-15 06:10:00,
2013-05-15 01:11:00,77.3,58.8,29.61,SW,229,21.0,22.0,53,0.00,,,0.00,Wunderground v.1.15,2013-05-15 06:11:00,
2013-05-15 01:14:00,77.2,58.7,29.61,SW,231,21.0,24.0,53,0.00,,,0.00,Wunderground v.1.15,2013-05-15 06:14:00,
2013-05-15 01:16:00,77.2,59.3,29.61,WSW,246,21.0,24.0,54,0.00,,,0.00,Wunderground v.1.15,2013-05-15 06:16:00,
2013-05-15 01:17:00,77.1,59.2,29.61,SW,236,20.0,24.0,54,0.00,,,0.00,Wunderground v.1.15,2013-05-15 06:17:00,
2013-05-15 01:18:00,77.1,59.2,29.61,SW,227,21.0,27.0,54,0.00,,,0.00,Wunderground v.1.15,2013-05-15 06:18:00,
2013-05-15 01:21:00,77.0,59.1,29.62,SW,232,21.0,28.0,54,0.00,,,0.00,Wunderground v.1.15,2013-05-15 06:21:00,
2013-05-15 01:24:00,77.0,59.1,29.61,West,263,22.0,28.0,54,0.00,,,0.00,Wunderground v.1.15,2013-05-15 06:24:00,
2013-05-15 01:25:00,76.9,59.0,29.61,WSW,247,22.0,28.0,54,0.00,,,0.00,Wunderground v.1.15,2013-05-15 06:25:00,
2013-05-15 01:27:00,76.8,59.4,29.61,SW,230,22.0,28.0,55,0.00,,,0.00,Wunderground v.1.15,2013-05-15 06:27:00,
2013-05-15 01:28:00,76.8,59.4,29.61,SW,232,22.0,28.0,55,0.00,,,0.00,Wunderground v.1.15,2013-05-15 06:28:00,
2013-05-15 01:29:00,76.8,59.4,29.61,SW,231,22.0,28.0,55,0.00,,,0.00,Wunderground v.1.15,2013-05-15 06:29:00,
2013-05-15 01:32:00,76.8,59.4,29.62,SW,236,23.0,30.0,55,0.00,,,0.00,Wunderground v.1.15,2013-05-15 06:32:00,
2013-05-15 01:33:00,76.7,59.3,29.61,SW,229,22.0,30.0,55,0.00,,,0.00,Wunderground v.1.15,2013-05-15 06:33:00,
2013-05-15 01:35:00,76.6,59.2,29.62,SW,235,23.0,30.0,55,0.00,,,0.00,Wunderground v.1.15,2013-05-15 06:35:00,
2013-05-15 01:37:00,76.4,59.5,29.62,SW,231,23.0,30.0,56,0.00,,,0.00,Wunderground v.1.15,2013-05-15 06:37:00,
2013-05-15 01:38:00,76.4,59.5,29.62,WSW,240,23.0,30.0,56,0.00,,,0.00,Wunderground v.1.15,2013-05-15 06:38:00,
2013-05-15 01:41:00,76.5,59.6,29.61,SW,235,23.0,24.0,56,0.00,,,0.00,Wunderground v.1.15,2013-05-15 06:41:00,
2013-05-15 01:42:00,76.5,59.6,29.62,SW,228,24.0,25.0,56,0.00,,,0.00,Wunderground v.1.15,2013-05-15 06:42:00,
2013-05-15 01:43:00,76.5,59.6,29.62,WSW,238,24.0,25.0,56,0.00,,,0.00,Wunderground v.1.15,2013-05-15 06:43:00,
2013-05-15 01:44:00,76.4,59.5,29.62,WSW,238,24.0,25.0,56,0.00,,,0.00,Wunderground v.1.15,2013-05-15 06:44:00,
2013-05-15 01:46:00,76.3,59.4,29.62,SW,229,23.0,25.0,56,0.00,,,0.00,Wunderground v.1.15,2013-05-15 06:46:00,
2013-05-15 01:49:00,76.1,59.8,29.62,SW,229,23.0,26.0,57,0.00,,,0.00,Wunderground v.1.15,2013-05-15 06:49:00,
2013-05-15 01:50:00,76.1,59.8,29.62,WSW,247,22.0,22.0,57,0.00,,,0.00,Wunderground v.1.15,2013-05-15 06:50:00,
2013-05-15 01:53:00,76.1,59.8,29.62,SW,234,22.0,25.0,57,0.00,,,0.00,Wunderground v.1.15,2013-05-15 06:53:00,
2013-05-15 01:54:00,76.1,59.8,29.62,SW,227,23.0,25.0,57,0.00,,,0.00,Wunderground v.1.15,2013-05-15 06:54:00,
2013-05-15 01:55:00,76.1,59.8,29.62,WSW,238,23.0,25.0,57,0.00,,,0.00,Wunderground v.1.15,2013-05-15 06:55:00,
2013-05-15 01:56:00,76.1,59.8,29.62,SW,225,23.0,30.0,57,0.00,,,0.00,Wunderground v.1.15,2013-05-15 06:56:00,
2013-05-15 01:59:00,76.1,59.8,29.62,WSW,239,23.0,30.0,57,0.00,,,0.00,Wunderground v.1.15,2013-05-15 06:59:00,
2013-05-15 02:00:00,76.1,59.8,29.62,SW,231,23.0,23.0,57,0.00,,,0.00,Wunderground v.1.15,2013-05-15 07:00:00,
2013-05-15 02:01:00,76.0,59.7,29.62,SW,229,23.0,23.0,57,0.00,,,0.00,Wunderground v.1.15,2013-05-15 07:01:00,
2013-05-15 02:02:00,76.0,59.7,29.62,WSW,239,23.0,28.0,57,0.00,,,0.00,Wunderground v.1.15,2013-05-15 07:02:00,
2013-05-15 02:04:00,76.0,59.7,29.62,SW,223,23.0,28.0,57,0.00,,,0.00,Wunderground v.1.15,2013-05-15 07:04:00,
2013-05-15 02:06:00,75.9,60.1,29.62,SW,231,22.0,28.0,58,0.00,,,0.00,Wunderground v.1.15,2013-05-15 07:06:00,
2013-05-15 02:07:00,75.8,60.0,29.62,SW,232,23.0,28.0,58,0.00,,,0.00,Wunderground v.1.15,2013-05-15 07:07:00,
2013-05-15 02:11:00,75.7,59.9,29.62,SW,236,22.0,26.0,58,0.00,,,0.00,Wunderground v.1.15,2013-05-15 07:11:00,
2013-05-15 02:12:00,75.7,59.9,29.62,West,265,22.0,26.0,58,0.00,,,0.00,Wunderground v.1.15,2013-05-15 07:12:00,
2013-05-15 02:17:00,75.8,60.0,29.62,WSW,242,23.0,27.0,58,0.00,,,0.00,Wunderground v.1.15,2013-05-15 07:17:00,
2013-05-15 02:18:00,75.8,60.0,29.62,WSW,241,23.0,27.0,58,0.00,,,0.00,Wunderground v.1.15,2013-05-15 07:18:00,
2013-05-15 02:19:00,75.7,59.9,29.62,WSW,238,23.0,27.0,58,0.00,,,0.00,Wunderground v.1.15,2013-05-15 07:19:00,
2013-05-15 02:20:00,75.6,59.8,29.62,SW,231,23.0,23.0,58,0.00,,,0.00,Wunderground v.1.15,2013-05-15 07:20:00,
2013-05-15 02:24:00,75.3,60.0,29.62,SW,228,22.0,24.0,59,0.00,,,0.00,Wunderground v.1.15,2013-05-15 07:24:00,
2013-05-15 02:25:00,75.3,60.0,29.62,SW,234,22.0,24.0,59,0.00,,,0.00,Wunderground v.1.15,2013-05-15 07:25:00,
2013-05-15 02:26:00,75.3,60.0,29.62,SW,234,22.0,24.0,59,0.00,,,0.00,Wunderground v.1.15,2013-05-15 07:26:00,
2013-05-15 02:29:00,75.1,59.8,29.62,West,264,21.0,24.0,59,0.00,,,0.00,Wunderground v.1.15,2013-05-15 07:29:00,
2013-05-15 02:31:00,75.1,60.3,29.62,West,259,21.0,24.0,60,0.00,,,0.00,Wunderground v.1.15,2013-05-15 07:31:00,
2013-05-15 02:32:00,75.1,60.3,29.62,SW,236,21.0,24.0,60,0.00,,,0.00,Wunderground v.1.15,2013-05-15 07:32:00,
2013-05-15 02:33:00,75.1,59.8,29.63,WSW,239,22.0,24.0,59,0.00,,,0.00,Wunderground v.1.15,2013-05-15 07:33:00,
2013-05-15 02:35:00,75.1,60.3,29.63,SW,227,21.0,24.0,60,0.00,,,0.00,Wunderground v.1.15,2013-05-15 07:35:00,
2013-05-15 02:36:00,75.1,59.8,29.62,WSW,252,22.0,24.0,59,0.00,,,0.00,Wunderground v.1.15,2013-05-15 07:36:00,
2013-05-15 02:39:00,75.2,59.9,29.62,WSW,241,23.0,29.0,59,0.00,,,0.00,Wunderground v.1.15,2013-05-15 07:39:00,
2013-05-15 02:41:00,75.2,59.9,29.62,WSW,238,24.0,30.0,59,0.00,,,0.00,Wunderground v.1.15,2013-05-15 07:41:00,
2013-05-15 02:43:00,75.2,59.9,29.62,WSW,248,25.0,31.0,59,0.00,,,0.00,Wunderground v.1.15,2013-05-15 07:43:00,
2013-05-15 02:44:00,75.2,59.9,29.62,SW,229,25.0,31.0,59,0.00,,,0.00,Wunderground v.1.15,2013-05-15 07:44:00,
2013-05-15 02:47:00,75.1,59.8,29.62,SW,235,25.0,31.0,59,0.00,,,0.00,Wunderground v.1.15,2013-05-15 07:47:00,
2013-05-15 02:49:00,75.0,60.2,29.62,WSW,238,25.0,31.0,60,0.00,,,0.00,Wunderground v.1.15,2013-05-15 07:49:00,
2013-05-15 02:50:00,75.0,60.2,29.62,WSW,250,25.0,29.0,60,0.00,,,0.00,Wunderground v.1.15,2013-05-15 07:50:00,
2013-05-15 02:55:00,74.9,60.1,29.62,WSW,240,24.0,30.0,60,0.00,,,0.00,Wunderground v.1.15,2013-05-15 07:55:00,
2013-05-15 02:56:00,74.8,60.0,29.62,SW,225,24.0,30.0,60,0.00,,,0.00,Wunderground v.1.15,2013-05-15 07:56:00,
2013-05-15 02:57:00,74.9,60.1,29.62,SW,232,24.0,30.0,60,0.00,,,0.00,Wunderground v.1.15,2013-05-15 07:57:00,
2013-05-15 02:59:00,74.8,60.0,29.62,West,277,23.0,30.0,60,0.00,,,0.00,Wunderground v.1.15,2013-05-15 07:59:00,
2013-05-15 03:02:00,74.8,60.0,29.62,WSW,242,23.0,26.0,60,0.00,,,0.00,Wunderground v.1.15,2013-05-15 08:02:00,
2013-05-15 03:03:00,74.8,60.0,29.62,WSW,242,23.0,26.0,60,0.00,,,0.00,Wunderground v.1.15,2013-05-15 08:03:00,
2013-05-15 03:08:00,74.8,60.0,29.62,SW,231,24.0,26.0,60,0.00,,,0.00,Wunderground v.1.15,2013-05-15 08:08:00,
2013-05-15 03:09:00,74.8,60.0,29.62,WSW,242,24.0,26.0,60,0.00,,,0.00,Wunderground v.1.15,2013-05-15 08:09:00,
2013-05-15 03:10:00,74.7,59.9,29.62,WSW,241,23.0,23.0,60,0.00,,,0.00,Wunderground v.1.15,2013-05-15 08:10:00,
2013-05-15 03:14:00,74.6,59.8,29.62,SW,234,23.0,24.0,60,0.00,,,0.00,Wunderground v.1.15,2013-05-15 08:14:00,
2013-05-15 03:15:00,74.6,59.8,29.62,West,261,23.0,24.0,60,0.00,,,0.00,Wunderground v.1.15,2013-05-15 08:15:00,
2013-05-15 03:16:00,74.5,59.7,29.62,SW,227,22.0,24.0,60,0.00,,,0.00,Wunderground v.1.15,2013-05-15 08:16:00,
2013-05-15 03:19:00,74.5,60.2,29.62,WSW,238,22.0,24.0,61,0.00,,,0.00,Wunderground v.1.15,2013-05-15 08:19:00,
2013-05-15 03:20:00,74.5,60.2,29.62,SW,231,22.0,25.0,61,0.00,,,0.00,Wunderground v.1.15,2013-05-15 08:20:00,
2013-05-15 03:21:00,74.5,60.2,29.62,SW,231,22.0,30.0,61,0.00,,,0.00,Wunderground v.1.15,2013-05-15 08:21:00,
2013-05-15 03:24:00,74.6,59.8,29.62,WSW,239,22.0,30.0,60,0.00,,,0.00,Wunderground v.1.15,2013-05-15 08:24:00,
2013-05-15 03:26:00,74.5,60.2,29.63,WSW,250,22.0,30.0,61,0.00,,,0.00,Wunderground v.1.15,2013-05-15 08:26:00,
2013-05-15 03:27:00,74.4,60.1,29.63,SW,232,22.0,30.0,61,0.00,,,0.00,Wunderground v.1.15,2013-05-15 08:27:00,
2013-05-15 03:28:00,74.4,60.1,29.63,SW,234,21.0,30.0,61,0.00,,,0.00,Wunderground v.1.15,2013-05-15 08:28:00,
2013-05-15 03:29:00,74.4,60.1,29.63,WSW,246,21.0,30.0,61,0.00,,,0.00,Wunderground v.1.15,2013-05-15 08:29:00,
2013-05-15 03:35:00,74.3,60.0,29.63,WSW,248,19.0,23.0,61,0.00,,,0.00,Wunderground v.1.15,2013-05-15 08:35:00,
2013-05-15 03:37:00,74.3,60.0,29.63,WSW,238,20.0,23.0,61,0.00,,,0.00,Wunderground v.1.15,2013-05-15 08:37:00,
2013-05-15 03:39:00,74.2,59.9,29.63,SW,225,20.0,23.0,61,0.00,,,0.00,Wunderground v.1.15,2013-05-15 08:39:00,
2013-05-15 03:43:00,74.0,60.2,29.63,WSW,242,20.0,22.0,62,0.00,,,0.00,Wunderground v.1.15,2013-05-15 08:43:00,
2013-05-15 03:44:00,74.0,60.2,29.63,West,262,19.0,22.0,62,0.00,,,0.00,Wunderground v.1.15,2013-05-15 08:44:00,
2013-05-15 03:46:00,74.0,60.2,29.63,WSW,258,19.0,22.0,62,0.00,,,0.00,Wunderground v.1.15,2013-05-15 08:46:00,
2013-05-15 03:48:00,74.0,60.2,29.64,WSW,246,19.0,22.0,62,0.00,,,0.00,Wunderground v.1.15,2013-05-15 08:48:00,
2013-05-15 03:51:00,74.0,60.2,29.64,WSW,250,19.0,19.0,62,0.00,,,0.00,Wunderground v.1.15,2013-05-15 08:51:00,
2013-05-15 03:53:00,74.0,60.2,29.64,SW,236,19.0,23.0,62,0.00,,,0.00,Wunderground v.1.15,2013-05-15 08:53:00,
2013-05-15 03:54:00,74.0,60.2,29.64,SW,236,19.0,23.0,62,0.00,,,0.00,Wunderground v.1.15,2013-05-15 08:54:00,
2013-05-15 03:57:00,74.0,60.2,29.64,SW,234,20.0,23.0,62,0.00,,,0.00,Wunderground v.1.15,2013-05-15 08:57:00,
2013-05-15 03:58:00,74.0,60.2,29.64,SW,232,20.0,23.0,62,0.00,,,0.00,Wunderground v.1.15,2013-05-15 08:58:00,
2013-05-15 04:00:00,73.9,60.1,29.64,WNW,283,19.0,19.0,62,0.00,,,0.00,Wunderground v.1.15,2013-05-15 09:00:00,
2013-05-15 04:03:00,73.8,60.4,29.64,West,265,19.0,19.0,63,0.00,,,0.00,Wunderground v.1.15,2013-05-15 09:03:00,
2013-05-15 04:04:00,73.7,60.3,29.64,SW,222,18.0,19.0,63,0.00,,,0.00,Wunderground v.1.15,2013-05-15 09:04:00,
2013-05-15 04:05:00,73.7,60.3,29.64,SW,234,18.0,22.0,63,0.00,,,0.00,Wunderground v.1.15,2013-05-15 09:05:00,
2013-05-15 04:08:00,73.7,60.3,29.65,West,271,18.0,22.0,63,0.00,,,0.00,Wunderground v.1.15,2013-05-15 09:08:00,
2013-05-15 04:10:00,73.7,60.3,29.65,WSW,251,18.0,18.0,63,0.00,,,0.00,Wunderground v.1.15,2013-05-15 09:10:00,
2013-05-15 04:11:00,73.7,60.3,29.65,WSW,238,18.0,18.0,63,0.00,,,0.00,Wunderground v.1.15,2013-05-15 09:11:00,
2013-05-15 04:13:00,73.7,60.3,29.64,WSW,240,19.0,20.0,63,0.00,,,0.00,Wunderground v.1.15,2013-05-15 09:13:00,
2013-05-15 04:19:00,73.6,60.2,29.65,West,271,19.0,23.0,63,0.00,,,0.00,Wunderground v.1.15,2013-05-15 09:19:00,
2013-05-15 04:20:00,73.6,60.2,29.65,WSW,254,19.0,22.0,63,0.00,,,0.00,Wunderground v.1.15,2013-05-15 09:20:00,
2013-05-15 04:21:00,73.6,60.2,29.65,WSW,239,19.0,22.0,63,0.00,,,0.00,Wunderground v.1.15,2013-05-15 09:21:00,
2013-05-15 04:22:00,73.5,60.1,29.65,WSW,246,19.0,22.0,63,0.00,,,0.00,Wunderground v.1.15,2013-05-15 09:22:00,
2013-05-15 04:23:00,73.5,60.6,29.65,SW,231,18.0,23.0,64,0.00,,,0.00,Wunderground v.1.15,2013-05-15 09:23:00,
2013-05-15 04:24:00,73.5,60.1,29.66,WSW,248,18.0,27.0,63,0.00,,,0.00,Wunderground v.1.15,2013-05-15 09:24:00,
2013-05-15 04:27:00,73.5,60.1,29.65,WSW,254,18.0,27.0,63,0.00,,,0.00,Wunderground v.1.15,2013-05-15 09:27:00,
2013-05-15 04:30:00,73.4,60.5,29.65,WSW,246,18.0,18.0,64,0.00,,,0.00,Wunderground v.1.15,2013-05-15 09:30:00,
2013-05-15 04:31:00,73.4,60.5,29.65,SW,236,18.0,23.0,64,0.00,,,0.00,Wunderground v.1.15,2013-05-15 09:31:00,
2013-05-15 04:35:00,73.3,60.4,29.65,West,276,18.0,23.0,64,0.00,,,0.00,Wunderground v.1.15,2013-05-15 09:35:00,
2013-05-15 04:37:00,73.2,60.3,29.66,WSW,238,18.0,23.0,64,0.00,,,0.00,Wunderground v.1.15,2013-05-15 09:37:00,
2013-05-15 04:39:00,73.1,60.6,29.66,SW,236,17.0,23.0,65,0.00,,,0.00,Wunderground v.1.15,2013-05-15 09:39:00,
2013-05-15 04:40:00,73.1,60.6,29.66,WSW,248,17.0,19.0,65,0.00,,,0.00,Wunderground v.1.15,2013-05-15 09:40:00,
2013-05-15 04:42:00,73.0,60.5,29.66,WSW,250,17.0,20.0,65,0.00,,,0.00,Wunderground v.1.15,2013-05-15 09:42:00,
2013-05-15 04:45:00,72.9,60.4,29.66,WSW,249,17.0,22.0,65,0.00,,,0.00,Wunderground v.1.15,2013-05-15 09:45:00,
2013-05-15 04:46:00,72.9,60.4,29.66,SW,229,16.0,22.0,65,0.00,,,0.00,Wunderground v.1.15,2013-05-15 09:46:00,
2013-05-15 04:47:00,72.8,60.3,29.66,WSW,248,17.0,22.0,65,0.00,,,0.00,Wunderground v.1.15,2013-05-15 09:47:00,
2013-05-15 04:51:00,72.7,60.3,29.67,SW,234,17.0,17.0,65,0.00,,,0.00,Wunderground v.1.15,2013-05-15 09:51:00,
2013-05-15 04:53:00,72.6,60.6,29.66,WSW,251,16.0,19.0,66,0.00,,,0.00,Wunderground v.1.15,2013-05-15 09:53:00,
2013-05-15 04:54:00,72.6,60.6,29.67,SW,235,16.0,19.0,66,0.00,,,0.00,Wunderground v.1.15,2013-05-15 09:54:00,
2013-05-15 04:56:00,72.5,60.5,29.67,WSW,240,16.0,19.0,66,0.00,,,0.00,Wunderground v.1.15,2013-05-15 09:56:00,
2013-05-15 04:58:00,72.4,60.4,29.67,SW,220,16.0,19.0,66,0.00,,,0.00,Wunderground v.1.15,2013-05-15 09:58:00,
2013-05-15 05:00:00,72.4,60.4,29.67,SW,234,16.0,16.0,66,0.00,,,0.00,Wunderground v.1.15,2013-05-15 10:00:00,
2013-05-15 05:02:00,72.4,60.4,29.67,WSW,250,16.0,17.0,66,0.00,,,0.00,Wunderground v.1.15,2013-05-15 10:02:00,
2013-05-15 05:04:00,72.4,60.4,29.67,WSW,237,16.0,17.0,66,0.00,,,0.00,Wunderground v.1.15,2013-05-15 10:04:00,
2013-05-15 05:06:00,72.3,60.3,29.67,WSW,254,16.0,18.0,66,0.00,,,0.00,Wunderground v.1.15,2013-05-15 10:06:00,
2013-05-15 05:07:00,72.2,60.6,29.66,SW,227,15.0,18.0,67,0.00,,,0.00,Wunderground v.1.15,2013-05-15 10:07:00,
2013-05-15 05:08:00,72.2,60.6,29.67,WSW,251,16.0,21.0,67,0.00,,,0.00,Wunderground v.1.15,2013-05-15 10:08:00,
2013-05-15 05:10:00,72.1,60.5,29.67,SW,234,15.0,15.0,67,0.00,,,0.00,Wunderground v.1.15,2013-05-15 10:10:00,
2013-05-15 05:14:00,72.0,60.4,29.67,WSW,249,15.0,16.0,67,0.00,,,0.00,Wunderground v.1.15,2013-05-15 10:14:00,
2013-05-15 05:16:00,71.9,60.3,29.66,SW,229,15.0,18.0,67,0.00,,,0.00,Wunderground v.1.15,2013-05-15 10:16:00,
2013-05-15 05:17:00,71.9,60.3,29.66,SW,229,15.0,18.0,67,0.00,,,0.00,Wunderground v.1.15,2013-05-15 10:17:00,
2013-05-15 05:22:00,71.7,60.6,29.67,WSW,238,14.0,16.0,68,0.00,,,0.00,Wunderground v.1.15,2013-05-15 10:22:00,
2013-05-15 05:23:00,71.7,60.6,29.67,WSW,247,15.0,16.0,68,0.00,,,0.00,Wunderground v.1.15,2013-05-15 10:23:00,
2013-05-15 05:24:00,71.6,60.5,29.67,WSW,238,15.0,16.0,68,0.00,,,0.00,Wunderground v.1.15,2013-05-15 10:24:00,
2013-05-15 05:25:00,71.6,60.5,29.67,SW,236,14.0,17.0,68,0.00,,,0.00,Wunderground v.1.15,2013-05-15 10:25:00,
2013-05-15 05:30:00,71.5,60.4,29.67,WSW,246,15.0,18.0,68,0.00,,,0.00,Wunderground v.1.15,2013-05-15 10:30:00,
2013-05-15 05:31:00,71.5,60.4,29.67,WSW,243,15.0,18.0,68,0.00,,,0.00,Wunderground v.1.15,2013-05-15 10:31:00,
2013-05-15 05:35:00,71.5,60.4,29.67,West,259,15.0,18.0,68,0.00,,,0.00,Wunderground v.1.15,2013-05-15 10:35:00,
2013-05-15 05:36:00,71.5,60.4,29.67,WSW,252,15.0,18.0,68,0.00,,,0.00,Wunderground v.1.15,2013-05-15 10:36:00,
2013-05-15 05:37:00,71.5,60.4,29.67,WSW,246,15.0,18.0,68,0.00,,,0.00,Wunderground v.1.15,2013-05-15 10:37:00,
2013-05-15 05:39:00,71.4,60.3,29.68,West,261,15.0,18.0,68,0.00,,,0.00,Wunderground v.1.15,2013-05-15 10:39:00,
2013-05-15 05:42:00,71.3,60.2,29.67,SW,236,15.0,17.0,68,0.00,,,0.00,Wunderground v.1.15,2013-05-15 10:42:00,
2013-05-15 05:44:00,71.2,60.5,29.68,WSW,237,14.0,17.0,69,0.00,,,0.00,Wunderground v.1.15,2013-05-15 10:44:00,
2013-05-15 05:48:00,71.1,60.4,29.68,WSW,239,14.0,17.0,69,0.00,,,0.00,Wunderground v.1.15,2013-05-15 10:48:00,
2013-05-15 05:49:00,71.0,60.3,29.68,WSW,255,13.0,17.0,69,0.00,,,0.00,Wunderground v.1.15,2013-05-15 10:49:00,
2013-05-15 05:50:00,71.0,60.3,29.68,WSW,240,13.0,13.0,69,0.00,,,0.00,Wunderground v.1.15,2013-05-15 10:50:00,
2013-05-15 05:55:00,70.8,60.1,29.68,SW,223,13.0,18.0,69,0.00,,,0.00,Wunderground v.1.15,2013-05-15 10:55:00,
2013-05-15 05:56:00,70.8,60.1,29.68,WSW,252,13.0,18.0,69,0.00,,,0.00,Wunderground v.1.15,2013-05-15 10:56:00,
2013-05-15 06:00:00,70.8,60.1,29.68,WSW,248,14.0,14.0,69,0.00,,,0.00,Wunderground v.1.15,2013-05-15 11:00:00,
2013-05-15 06:02:00,70.8,60.1,29.68,West,262,14.0,14.0,69,0.00,,,0.00,Wunderground v.1.15,2013-05-15 11:02:00,
2013-05-15 06:05:00,70.7,60.4,29.68,WSW,240,13.0,14.0,70,0.00,,,0.00,Wunderground v.1.15,2013-05-15 11:05:00,
2013-05-15 06:06:00,70.6,60.3,29.68,WSW,245,13.0,14.0,70,0.00,,,0.00,Wunderground v.1.15,2013-05-15 11:06:00,
2013-05-15 06:08:00,70.6,60.3,29.68,SW,234,13.0,15.0,70,0.00,,,0.00,Wunderground v.1.15,2013-05-15 11:08:00,
2013-05-15 06:11:00,70.5,60.2,29.68,SW,230,13.0,13.0,70,0.00,,,0.00,Wunderground v.1.15,2013-05-15 11:11:00,
2013-05-15 06:12:00,70.5,60.2,29.68,SW,236,13.0,13.0,70,0.00,,,0.00,Wunderground v.1.15,2013-05-15 11:12:00,
2013-05-15 06:13:00,70.5,60.2,29.68,SW,233,12.0,14.0,70,0.00,,,0.00,Wunderground v.1.15,2013-05-15 11:13:00,
2013-05-15 06:17:00,70.4,60.1,29.68,SW,235,13.0,14.0,70,0.00,,,0.00,Wunderground v.1.15,2013-05-15 11:17:00,
2013-05-15 06:18:00,70.4,60.1,29.68,SW,233,12.0,14.0,70,0.00,,,0.00,Wunderground v.1.15,2013-05-15 11:18:00,
2013-05-15 06:19:00,70.4,60.1,29.68,WSW,245,12.0,14.0,70,0.00,,,0.00,Wunderground v.1.15,2013-05-15 11:19:00,
2013-05-15 06:22:00,70.3,60.4,29.68,WSW,242,12.0,14.0,71,0.00,,,0.00,Wunderground v.1.15,2013-05-15 11:22:00,
2013-05-15 06:24:00,70.3,60.1,29.68,WSW,252,12.0,14.0,70,0.00,,,0.00,Wunderground v.1.15,2013-05-15 11:24:00,
2013-05-15 06:26:00,70.3,60.4,29.68,SW,234,12.0,15.0,71,0.00,,,0.00,Wunderground v.1.15,2013-05-15 11:26:00,
2013-05-15 06:29:00,70.3,60.4,29.69,WSW,241,12.0,15.0,71,0.00,,,0.00,Wunderground v.1.15,2013-05-15 11:29:00,
2013-05-15 06:31:00,70.3,60.4,29.69,WSW,238,12.0,12.0,71,0.00,,,0.00,Wunderground v.1.15,2013-05-15 11:31:00,
2013-05-15 06:33:00,70.3,60.4,29.69,WSW,257,11.0,12.0,71,0.00,,,0.00,Wunderground v.1.15,2013-05-15 11:33:00,
2013-05-15 06:34:00,70.3,60.4,29.70,WSW,239,11.0,12.0,71,0.00,,,0.00,Wunderground v.1.15,2013-05-15 11:34:00,
2013-05-15 06:38:00,70.4,60.5,29.69,SW,236,11.0,15.0,71,0.00,,,0.00,Wunderground v.1.15,2013-05-15 11:38:00,
2013-05-15 06:39:00,70.4,60.5,29.69,WSW,237,12.0,15.0,71,0.00,,,0.00,Wunderground v.1.15,2013-05-15 11:39:00,
2013-05-15 06:41:00,70.4,60.1,29.69,WSW,244,12.0,14.0,70,0.00,,,0.00,Wunderground v.1.15,2013-05-15 11:41:00,
2013-05-15 06:44:00,70.6,60.3,29.69,WSW,256,12.0,14.0,70,0.00,,,0.00,Wunderground v.1.15,2013-05-15 11:44:00,
2013-05-15 06:47:00,70.6,60.3,29.69,WSW,250,12.0,14.0,70,0.00,,,0.00,Wunderground v.1.15,2013-05-15 11:47:00,
2013-05-15 06:48:00,70.6,60.3,29.70,SW,229,12.0,14.0,70,0.00,,,0.00,Wunderground v.1.15,2013-05-15 11:48:00,
2013-05-15 06:50:00,70.7,60.4,29.70,WSW,252,12.0,12.0,70,0.00,,,0.00,Wunderground v.1.15,2013-05-15 11:50:00,
2013-05-15 06:53:00,70.7,60.4,29.70,WSW,254,12.0,13.0,70,0.00,,,0.00,Wunderground v.1.15,2013-05-15 11:53:00,
2013-05-15 06:54:00,70.8,60.1,29.70,WSW,244,12.0,13.0,69,0.00,,,0.00,Wunderground v.1.15,2013-05-15 11:54:00,
2013-05-15 06:57:00,70.9,60.2,29.70,WSW,256,12.0,14.0,69,0.00,,,0.00,Wunderground v.1.15,2013-05-15 11:57:00,
2013-05-15 06:59:00,71.0,60.3,29.70,WSW,250,12.0,14.0,69,0.00,,,0.00,Wunderground v.1.15,2013-05-15 11:59:00,
2013-05-15 07:01:00,71.1,60.4,29.70,SW,234,12.0,13.0,69,0.00,,,0.00,Wunderground v.1.15,2013-05-15 12:01:00,
2013-05-15 07:02:00,71.1,60.4,29.70,WSW,247,12.0,13.0,69,0.00,,,0.00,Wunderground v.1.15,2013-05-15 12:02:00,
2013-05-15 07:04:00,71.2,60.5,29.70,WSW,239,12.0,13.0,69,0.00,,,0.00,Wunderground v.1.15,2013-05-15 12:04:00,
2013-05-15 07:08:00,71.2,60.5,29.70,WSW,254,12.0,13.0,69,0.00,,,0.00,Wunderground v.1.15,2013-05-15 12:08:00,
2013-05-15 07:10:00,71.2,60.1,29.70,SW,230,12.0,16.0,68,0.00,,,0.00,Wunderground v.1.15,2013-05-15 12:10:00,
2013-05-15 07:12:00,71.2,60.1,29.70,WSW,246,12.0,16.0,68,0.00,,,0.00,Wunderground v.1.15,2013-05-15 12:12:00,
2013-05-15 07:14:00,71.2,60.5,29.70,SW,236,12.0,16.0,69,0.00,,,0.00,Wunderground v.1.15,2013-05-15 12:14:00,
2013-05-15 07:15:00,71.2,60.1,29.70,WSW,257,12.0,16.0,68,0.00,,,0.00,Wunderground v.1.15,2013-05-15 12:15:00,
2013-05-15 07:19:00,71.3,60.6,29.70,WSW,246,13.0,16.0,69,0.00,,,0.00,Wunderground v.1.15,2013-05-15 12:19:00,
2013-05-15 07:21:00,71.4,60.7,29.70,SW,231,12.0,13.0,69,0.00,,,0.00,Wunderground v.1.15,2013-05-15 12:21:00,
2013-05-15 07:22:00,71.4,60.7,29.70,WSW,246,12.0,13.0,69,0.00,,,0.00,Wunderground v.1.15,2013-05-15 12:22:00,
2013-05-15 07:26:00,71.6,60.5,29.70,WSW,246,12.0,17.0,68,0.00,,,0.00,Wunderground v.1.15,2013-05-15 12:26:00,
2013-05-15 07:28:00,71.7,60.2,29.70,WSW,239,12.0,17.0,67,0.00,,,0.00,Wunderground v.1.15,2013-05-15 12:28:00,
2013-05-15 07:31:00,71.9,60.8,29.70,SW,234,13.0,13.0,68,0.00,,,0.00,Wunderground v.1.15,2013-05-15 12:31:00,
2013-05-15 07:32:00,71.9,60.8,29.70,SW,236,12.0,13.0,68,0.00,,,0.00,Wunderground v.1.15,2013-05-15 12:32:00,
2013-05-15 07:33:00,71.9,60.8,29.70,WSW,239,12.0,13.0,68,0.00,,,0.00,Wunderground v.1.15,2013-05-15 12:33:00,
2013-05-15 07:37:00,72.1,60.5,29.70,SW,228,12.0,18.0,67,0.00,,,0.00,Wunderground v.1.15,2013-05-15 12:37:00,
2013-05-15 07:39:00,72.2,60.6,29.70,SW,229,12.0,18.0,67,0.00,,,0.00,Wunderground v.1.15,2013-05-15 12:39:00,
2013-05-15 07:40:00,72.2,60.6,29.70,SW,234,12.0,12.0,67,0.00,,,0.00,Wunderground v.1.15,2013-05-15 12:40:00,
2013-05-15 07:42:00,72.3,60.7,29.70,WSW,242,13.0,15.0,67,0.00,,,0.00,Wunderground v.1.15,2013-05-15 12:42:00,
2013-05-15 07:44:00,72.4,60.4,29.70,WSW,242,13.0,15.0,66,0.00,,,0.00,Wunderground v.1.15,2013-05-15 12:44:00,
2013-05-15 07:47:00,72.4,60.4,29.69,WSW,245,13.0,16.0,66,0.00,,,0.00,Wunderground v.1.15,2013-05-15 12:47:00,
2013-05-15 07:50:00,72.6,60.6,29.70,WSW,244,13.0,13.0,66,0.00,,,0.00,Wunderground v.1.15,2013-05-15 12:50:00,
2013-05-15 07:51:00,72.6,60.6,29.70,WSW,252,13.0,13.0,66,0.00,,,0.00,Wunderground v.1.15,2013-05-15 12:51:00,
2013-05-15 07:52:00,72.7,60.7,29.70,West,270,13.0,15.0,66,0.00,,,0.00,Wunderground v.1.15,2013-05-15 12:52:00,
2013-05-15 07:53:00,72.8,60.8,29.70,WSW,248,13.0,15.0,66,0.00,,,0.00,Wunderground v.1.15,2013-05-15 12:53:00,
2013-05-15 07:55:00,73.0,61.0,29.70,WSW,255,13.0,17.0,66,0.00,,,0.00,Wunderground v.1.15,2013-05-15 12:55:00,
2013-05-15 07:57:00,73.1,61.1,29.70,WSW,239,14.0,20.0,66,0.00,,,0.00,Wunderground v.1.15,2013-05-15 12:57:00,
2013-05-15 07:58:00,73.2,60.7,29.70,SW,233,14.0,20.0,65,0.00,,,0.00,Wunderground v.1.15,2013-05-15 12:58:00,
2013-05-15 07:59:00,73.2,60.7,29.70,WSW,250,14.0,20.0,65,0.00,,,0.00,Wunderground v.1.15,2013-05-15 12:59:00,
2013-05-15 08:03:00,73.4,60.9,29.70,WSW,246,13.0,16.0,65,0.00,,,0.00,Wunderground v.1.15,2013-05-15 13:03:00,
2013-05-15 08:04:00,73.4,60.5,29.70,West,269,13.0,16.0,64,0.00,,,0.00,Wunderground v.1.15,2013-05-15 13:04:00,
2013-05-15 08:06:00,73.4,60.5,29.70,West,261,13.0,16.0,64,0.00,,,0.00,Wunderground v.1.15,2013-05-15 13:06:00,
2013-05-15 08:07:00,73.4,60.5,29.70,WSW,249,13.0,16.0,64,0.00,,,0.00,Wunderground v.1.15,2013-05-15 13:07:00,
2013-05-15 08:11:00,73.2,60.3,29.70,WSW,249,13.0,16.0,64,0.00,,,0.00,Wunderground v.1.15,2013-05-15 13:11:00,
2013-05-15 08:12:00,73.1,60.2,29.70,West,263,13.0,16.0,64,0.00,,,0.00,Wunderground v.1.15,2013-05-15 13:12:00,
2013-05-15 08:14:00,73.0,60.5,29.70,WSW,250,13.0,16.0,65,0.00,,,0.00,Wunderground v.1.15,2013-05-15 13:14:00,
2013-05-15 08:15:00,72.9,60.0,29.70,West,261,13.0,16.0,64,0.00,,,0.00,Wunderground v.1.15,2013-05-15 13:15:00,
2013-05-15 08:16:00,72.9,60.4,29.70,WSW,256,13.0,16.0,65,0.00,,,0.00,Wunderground v.1.15,2013-05-15 13:16:00,
2013-05-15 08:20:00,72.6,60.2,29.70,WSW,254,12.0,12.0,65,0.00,,,0.00,Wunderground v.1.15,2013-05-15 13:20:00,
2013-05-15 08:21:00,72.6,60.2,29.70,WSW,248,12.0,13.0,65,0.00,,,0.00,Wunderground v.1.15,2013-05-15 13:21:00,
2013-05-15 08:24:00,72.4,60.0,29.70,WSW,248,11.0,13.0,65,0.00,,,0.00,Wunderground v.1.15,2013-05-15 13:24:00,
2013-05-15 08:25:00,72.4,60.4,29.70,West,275,11.0,13.0,66,0.00,,,0.00,Wunderground v.1.15,2013-05-15 13:25:00,
2013-05-15 08:26:00,72.3,60.3,29.71,West,264,11.0,13.0,66,0.00,,,0.00,Wunderground v.1.15,2013-05-15 13:26:00,
2013-05-15 08:29:00,72.2,60.2,29.71,WSW,243,11.0,13.0,66,0.00,,,0.00,Wunderground v.1.15,2013-05-15 13:29:00,
2013-05-15 08:30:00,72.2,60.2,29.71,WSW,257,11.0,11.0,66,0.00,,,0.00,Wunderground v.1.15,2013-05-15 13:30:00,
2013-05-15 08:33:00,72.1,60.1,29.71,West,267,11.0,15.0,66,0.00,,,0.00,Wunderground v.1.15,2013-05-15 13:33:00,
2013-05-15 08:35:00,72.0,60.0,29.71,WSW,252,11.0,15.0,66,0.00,,,0.00,Wunderground v.1.15,2013-05-15 13:35:00,
2013-05-15 08:38:00,71.9,59.9,29.71,WSW,246,11.0,16.0,66,0.00,,,0.00,Wunderground v.1.15,2013-05-15 13:38:00,
2013-05-15 08:39:00,71.9,60.3,29.71,West,263,11.0,16.0,67,0.00,,,0.00,Wunderground v.1.15,2013-05-15 13:39:00,
2013-05-15 08:42:00,71.8,60.2,29.71,WSW,246,11.0,15.0,67,0.00,,,0.00,Wunderground v.1.15,2013-05-15 13:42:00,
2013-05-15 08:47:00,71.8,60.2,29.71,WNW,284,10.0,15.0,67,0.00,,,0.00,Wunderground v.1.15,2013-05-15 13:47:00,
2013-05-15 08:49:00,71.7,60.2,29.71,West,263,10.0,15.0,67,0.00,,,0.00,Wunderground v.1.15,2013-05-15 13:49:00,
2013-05-15 08:51:00,71.7,60.2,29.71,West,261,10.0,13.0,67,0.00,,,0.00,Wunderground v.1.15,2013-05-15 13:51:00,
2013-05-15 08:54:00,71.7,60.2,29.71,SW,236,11.0,13.0,67,0.00,,,0.00,Wunderground v.1.15,2013-05-15 13:54:00,
2013-05-15 08:57:00,71.7,60.2,29.71,SW,234,11.0,18.0,67,0.00,,,0.00,Wunderground v.1.15,2013-05-15 13:57:00,
2013-05-15 08:58:00,71.7,59.7,29.71,West,262,11.0,18.0,66,0.00,,,0.00,Wunderground v.1.15,2013-05-15 13:58:00,
2013-05-15 08:59:00,71.7,59.7,29.71,West,269,11.0,18.0,66,0.00,,,0.00,Wunderground v.1.15,2013-05-15 13:59:00,
2013-05-15 09:03:00,71.7,60.2,29.71,WSW,248,11.0,16.0,67,0.00,,,0.00,Wunderground v.1.15,2013-05-15 14:03:00,
2013-05-15 09:06:00,71.8,60.2,29.71,WSW,251,11.0,16.0,67,0.00,,,0.00,Wunderground v.1.15,2013-05-15 14:06:00,
2013-05-15 09:09:00,71.9,60.3,29.71,WSW,251,10.0,16.0,67,0.00,,,0.00,Wunderground v.1.15,2013-05-15 14:09:00,
2013-05-15 09:10:00,71.9,60.3,29.71,WSW,255,10.0,12.0,67,0.00,,,0.00,Wunderground v.1.15,2013-05-15 14:10:00,
2013-05-15 09:12:00,71.9,59.9,29.71,West,261,10.0,13.0,66,0.00,,,0.00,Wunderground v.1.15,2013-05-15 14:12:00,
2013-05-15 09:14:00,72.0,60.4,29.71,WSW,238,10.0,13.0,67,0.00,,,0.00,Wunderground v.1.15,2013-05-15 14:14:00,
2013-05-15 09:18:00,72.2,60.2,29.71,WNW,294,10.0,13.0,66,0.00,,,0.00,Wunderground v.1.15,2013-05-15 14:18:00,
2013-05-15 09:20:00,72.3,60.3,29.71,WSW,248,10.0,13.0,66,0.00,,,0.00,Wunderground v.1.15,2013-05-15 14:20:00,
2013-05-15 09:21:00,72.4,60.4,29.71,West,267,10.0,13.0,66,0.00,,,0.00,Wunderground v.1.15,2013-05-15 14:21:00,
2013-05-15 09:24:00,72.5,60.9,29.71,WNW,293,8.0,13.0,67,0.00,,,0.00,Wunderground v.1.15,2013-05-15 14:24:00,
2013-05-15 09:30:00,72.6,60.2,29.71,West,278,8.0,9.0,65,0.00,,,0.00,Wunderground v.1.15,2013-05-15 14:30:00,
2013-05-15 09:33:00,72.7,60.3,29.71,West,261,8.0,11.0,65,0.00,,,0.00,Wunderground v.1.15,2013-05-15 14:33:00,
2013-05-15 09:36:00,72.8,60.8,29.71,WSW,252,8.0,11.0,66,0.00,,,0.00,Wunderground v.1.15,2013-05-15 14:36:00,
2013-05-15 09:37:00,72.9,60.4,29.71,West,275,8.0,11.0,65,0.00,,,0.00,Wunderground v.1.15,2013-05-15 14:37:00,
2013-05-15 09:38:00,72.9,60.4,29.71,West,265,8.0,11.0,65,0.00,,,0.00,Wunderground v.1.15,2013-05-15 14:38:00,
2013-05-15 09:41:00,73.0,61.0,29.71,WSW,246,8.0,8.0,66,0.00,,,0.00,Wunderground v.1.15,2013-05-15 14:41:00,
2013-05-15 09:42:00,73.1,60.6,29.71,West,279,7.0,9.0,65,0.00,,,0.00,Wunderground v.1.15,2013-05-15 14:42:00,
2013-05-15 09:44:00,73.1,60.2,29.71,WSW,255,8.0,10.0,64,0.00,,,0.00,Wunderground v.1.15,2013-05-15 14:44:00,
2013-05-15 09:48:00,73.4,60.5,29.72,West,265,8.0,12.0,64,0.00,,,0.00,Wunderground v.1.15,2013-05-15 14:48:00,
2013-05-15 09:50:00,73.5,60.6,29.72,West,273,8.0,8.0,64,0.00,,,0.00,Wunderground v.1.15,2013-05-15 14:50:00,
2013-05-15 09:51:00,73.7,60.8,29.72,West,261,8.0,9.0,64,0.00,,,0.00,Wunderground v.1.15,2013-05-15 14:51:00,
2013-05-15 09:52:00,73.8,61.3,29.72,West,267,8.0,9.0,65,0.00,,,0.00,Wunderground v.1.15,2013-05-15 14:52:00,
2013-05-15 09:56:00,74.3,60.9,29.72,West,275,8.0,15.0,63,0.00,,,0.00,Wunderground v.1.15,2013-05-15 14:56:00,
2013-05-15 10:00:00,74.6,59.8,29.73,WNW,288,10.0,12.0,60,0.00,,,0.00,Wunderground v.1.15,2013-05-15 15:00:00,
2013-05-15 10:03:00,74.8,60.4,29.72,NW,306,11.0,16.0,61,0.00,,,0.00,Wunderground v.1.15,2013-05-15 15:03:00,
2013-05-15 10:04:00,74.9,61.0,29.73,WNW,300,12.0,16.0,62,0.00,,,0.00,Wunderground v.1.15,2013-05-15 15:04:00,
2013-05-15 10:06:00,75.2,60.8,29.73,NW,305,12.0,16.0,61,0.00,,,0.00,Wunderground v.1.15,2013-05-15 15:06:00,
2013-05-15 10:08:00,75.2,59.9,29.72,WNW,287,13.0,16.0,59,0.00,,,0.00,Wunderground v.1.15,2013-05-15 15:08:00,
2013-05-15 10:11:00,75.1,60.3,29.72,West,281,12.0,13.0,60,0.00,,,0.00,Wunderground v.1.15,2013-05-15 15:11:00,
2013-05-15 10:14:00,75.1,60.7,29.72,WNW,287,12.0,17.0,61,0.00,,,0.00,Wunderground v.1.15,2013-05-15 15:14:00,
2013-05-15 10:15:00,75.1,61.2,29.72,WNW,288,11.0,17.0,62,0.00,,,0.00,Wunderground v.1.15,2013-05-15 15:15:00,
2013-05-15 10:16:00,75.1,60.7,29.73,WNW,287,11.0,17.0,61,0.00,,,0.00,Wunderground v.1.15,2013-05-15 15:16:00,
2013-05-15 10:20:00,74.6,59.8,29.73,WNW,301,12.0,14.0,60,0.00,,,0.00,Wunderground v.1.15,2013-05-15 15:20:00,
2013-05-15 10:21:00,74.4,59.6,29.73,NW,309,12.0,14.0,60,0.00,,,0.00,Wunderground v.1.15,2013-05-15 15:21:00,
2013-05-15 10:25:00,74.0,59.7,29.73,West,275,12.0,14.0,61,0.00,,,0.00,Wunderground v.1.15,2013-05-15 15:25:00,
2013-05-15 10:26:00,74.0,59.7,29.73,West,277,12.0,16.0,61,0.00,,,0.00,Wunderground v.1.15,2013-05-15 15:26:00,
2013-05-15 10:29:00,73.6,60.2,29.73,NW,307,12.0,16.0,63,0.00,,,0.00,Wunderground v.1.15,2013-05-15 15:29:00,
2013-05-15 10:32:00,73.3,59.9,29.73,NW,315,12.0,12.0,63,0.00,,,0.00,Wunderground v.1.15,2013-05-15 15:32:00,
2013-05-15 10:33:00,73.3,59.9,29.73,NW,304,12.0,12.0,63,0.00,,,0.00,Wunderground v.1.15,2013-05-15 15:33:00,
2013-05-15 10:38:00,72.9,60.4,29.73,NW,319,11.0,15.0,65,0.00,,,0.00,Wunderground v.1.15,2013-05-15 15:38:00,
2013-05-15 10:39:00,72.8,60.3,29.73,NW,305,11.0,15.0,65,0.00,,,0.00,Wunderground v.1.15,2013-05-15 15:39:00,
2013-05-15 10:40:00,72.7,60.3,29.73,WNW,300,12.0,12.0,65,0.00,,,0.00,Wunderground v.1.15,2013-05-15 15:40:00,
2013-05-15 10:43:00,72.5,58.7,29.74,WNW,290,11.0,12.0,62,0.00,,,0.00,Wunderground v.1.15,2013-05-15 15:43:00,
2013-05-15 10:45:00,72.3,58.5,29.73,WNW,299,11.0,12.0,62,0.00,,,0.00,Wunderground v.1.15,2013-05-15 15:45:00,
2013-05-15 10:47:00,72.2,58.9,29.73,WNW,297,10.0,12.0,63,0.00,,,0.00,Wunderground v.1.15,2013-05-15 15:47:00,
2013-05-15 10:50:00,72.0,59.2,29.73,WNW,296,9.0,9.0,64,0.00,,,0.00,Wunderground v.1.15,2013-05-15 15:50:00,
2013-05-15 10:51:00,72.0,58.7,29.73,WNW,284,8.0,9.0,63,0.00,,,0.00,Wunderground v.1.15,2013-05-15 15:51:00,
2013-05-15 10:53:00,71.9,59.1,29.73,NNW,329,8.0,15.0,64,0.00,,,0.00,Wunderground v.1.15,2013-05-15 15:53:00,
2013-05-15 10:54:00,71.9,59.9,29.73,NW,310,9.0,15.0,66,0.00,,,0.00,Wunderground v.1.15,2013-05-15 15:54:00,
2013-05-15 10:56:00,71.8,59.8,29.74,WNW,296,9.0,15.0,66,0.00,,,0.00,Wunderground v.1.15,2013-05-15 15:56:00,
2013-05-15 10:59:00,71.3,61.8,29.74,West,271,9.0,15.0,72,0.00,,,0.01,Wunderground v.1.15,2013-05-15 15:59:00,
2013-05-15 11:00:00,71.2,61.7,29.74,WNW,298,9.0,9.0,72,0.00,,,0.01,Wunderground v.1.15,2013-05-15 16:00:00,
2013-05-15 11:03:00,70.4,62.1,29.73,West,267,8.0,9.0,75,0.00,,,0.01,Wunderground v.1.15,2013-05-15 16:03:00,
2013-05-15 11:04:00,70.2,62.3,29.73,West,267,7.0,9.0,76,0.00,,,0.01,Wunderground v.1.15,2013-05-15 16:04:00,
2013-05-15 11:08:00,69.6,62.4,29.73,West,269,5.0,9.0,78,0.00,,,0.01,Wunderground v.1.15,2013-05-15 16:08:00,
2013-05-15 11:09:00,69.6,62.4,29.73,West,270,4.0,9.0,78,0.00,,,0.01,Wunderground v.1.15,2013-05-15 16:09:00,
2013-05-15 11:10:00,69.5,62.0,29.73,West,267,4.0,4.0,77,0.00,,,0.01,Wunderground v.1.15,2013-05-15 16:10:00,
2013-05-15 11:12:00,69.4,61.9,29.73,West,269,4.0,5.0,77,0.00,,,0.01,Wunderground v.1.15,2013-05-15 16:12:00,
2013-05-15 11:16:00,69.5,62.3,29.73,West,271,3.0,5.0,78,0.00,,,0.01,Wunderground v.1.15,2013-05-15 16:16:00,
2013-05-15 11:17:00,69.6,61.7,29.73,NW,306,3.0,5.0,76,0.00,,,0.01,Wunderground v.1.15,2013-05-15 16:17:00,
2013-05-15 11:18:00,69.6,61.7,29.73,WNW,284,4.0,6.0,76,0.00,,,0.01,Wunderground v.1.15,2013-05-15 16:18:00,
2013-05-15 11:19:00,69.7,61.8,29.73,WNW,284,4.0,6.0,76,0.00,,,0.01,Wunderground v.1.15,2013-05-15 16:19:00,
2013-05-15 11:22:00,69.9,61.6,29.73,WNW,286,4.0,6.0,75,0.00,,,0.01,Wunderground v.1.15,2013-05-15 16:22:00,
2013-05-15 11:24:00,70.2,61.9,29.73,West,281,4.0,6.0,75,0.00,,,0.01,Wunderground v.1.15,2013-05-15 16:24:00,
2013-05-15 11:25:00,70.2,61.5,29.73,WNW,283,4.0,6.0,74,0.00,,,0.01,Wunderground v.1.15,2013-05-15 16:25:00,
2013-05-15 11:27:00,70.4,61.7,29.73,WNW,283,3.0,6.0,74,0.00,,,0.01,Wunderground v.1.15,2013-05-15 16:27:00,
2013-05-15 11:32:00,70.8,62.1,29.73,West,263,3.0,5.0,74,0.00,,,0.01,Wunderground v.1.15,2013-05-15 16:32:00,
2013-05-15 11:33:00,70.9,62.2,29.73,WSW,253,3.0,5.0,74,0.00,,,0.01,Wunderground v.1.15,2013-05-15 16:33:00,
2013-05-15 11:35:00,71.0,62.3,29.73,WSW,254,3.0,5.0,74,0.00,,,0.02,Wunderground v.1.15,2013-05-15 16:35:00,
2013-05-15 11:37:00,71.1,62.4,29.73,WSW,252,4.0,5.0,74,0.00,,,0.02,Wunderground v.1.15,2013-05-15 16:37:00,
2013-05-15 11:38:00,71.2,62.5,29.73,WSW,252,4.0,6.0,74,0.00,,,0.02,Wunderground v.1.15,2013-05-15 16:38:00,
2013-05-15 11:39:00,71.2,61.3,29.73,WSW,239,4.0,6.0,71,0.00,,,0.02,Wunderground v.1.15,2013-05-15 16:39:00,
2013-05-15 11:40:00,71.3,62.2,29.73,SW,232,4.0,9.0,73,0.00,,,0.02,Wunderground v.1.15,2013-05-15 16:40:00,
2013-05-15 11:46:00,71.6,62.1,29.73,SW,233,6.0,11.0,72,0.00,,,0.02,Wunderground v.1.15,2013-05-15 16:46:00,
2013-05-15 11:47:00,71.7,62.2,29.73,SW,232,7.0,11.0,72,0.00,,,0.02,Wunderground v.1.15,2013-05-15 16:47:00,
2013-05-15 11:48:00,71.7,61.8,29.73,SW,233,7.0,11.0,71,0.00,,,0.02,Wunderground v.1.15,2013-05-15 16:48:00,
2013-05-15 11:50:00,71.7,61.4,29.73,WSW,243,7.0,7.0,70,0.00,,,0.02,Wunderground v.1.15,2013-05-15 16:50:00,
2013-05-15 11:52:00,71.7,61.0,29.73,SW,235,7.0,7.0,69,0.00,,,0.02,Wunderground v.1.15,2013-05-15 16:52:00,
2013-05-15 11:56:00,71.8,61.1,29.73,WSW,239,5.0,7.0,69,0.00,,,0.02,Wunderground v.1.15,2013-05-15 16:56:00,
2013-05-15 11:57:00,71.8,61.1,29.73,WSW,239,5.0,7.0,69,0.00,,,0.02,Wunderground v.1.15,2013-05-15 16:57:00,
2013-05-15 11:58:00,71.8,61.1,29.73,WSW,239,5.0,7.0,69,0.00,,,0.02,Wunderground v.1.15,2013-05-15 16:58:00,
2013-05-15 12:02:00,71.8,59.4,29.72,WSW,240,3.0,4.0,65,0.00,,,0.02,Wunderground v.1.15,2013-05-15 17:02:00,
2013-05-15 12:03:00,71.8,59.4,29.72,WSW,240,3.0,4.0,65,0.00,,,0.02,Wunderground v.1.15,2013-05-15 17:03:00,
2013-05-15 12:04:00,71.9,59.1,29.72,WSW,240,3.0,4.0,64,0.00,,,0.02,Wunderground v.1.15,2013-05-15 17:04:00,
2013-05-15 12:06:00,71.9,59.5,29.72,WSW,240,2.0,5.0,65,0.00,,,0.02,Wunderground v.1.15,2013-05-15 17:06:00,
2013-05-15 12:09:00,72.0,61.7,29.73,SW,228,4.0,10.0,70,0.00,,,0.02,Wunderground v.1.15,2013-05-15 17:09:00,
2013-05-15 12:11:00,71.9,62.4,29.73,SW,228,5.0,10.0,72,0.00,,,0.02,Wunderground v.1.15,2013-05-15 17:11:00,
2013-05-15 12:12:00,71.8,62.7,29.73,SW,220,5.0,11.0,73,0.00,,,0.02,Wunderground v.1.15,2013-05-15 17:12:00,
2013-05-15 12:14:00,71.3,61.0,29.73,SW,223,8.0,11.0,70,0.00,,,0.02,Wunderground v.1.15,2013-05-15 17:14:00,
2013-05-15 12:17:00,70.8,60.5,29.73,SW,222,9.0,11.0,70,0.00,,,0.02,Wunderground v.1.15,2013-05-15 17:17:00,
2013-05-15 12:19:00,70.5,60.2,29.73,SW,222,7.0,11.0,70,0.00,,,0.02,Wunderground v.1.15,2013-05-15 17:19:00,
2013-05-15 12:21:00,70.3,60.4,29.73,SW,222,6.0,6.0,71,0.00,,,0.02,Wunderground v.1.15,2013-05-15 17:21:00,
2013-05-15 12:24:00,70.1,59.5,29.73,SW,215,4.0,6.0,69,0.00,,,0.02,Wunderground v.1.15,2013-05-15 17:24:00,
2013-05-15 12:25:00,70.1,59.9,29.73,SSW,212,4.0,6.0,70,0.00,,,0.02,Wunderground v.1.15,2013-05-15 17:25:00,
2013-05-15 12:29:00,69.9,60.5,29.74,SSW,212,4.0,6.0,72,0.00,,,0.02,Wunderground v.1.15,2013-05-15 17:29:00,
2013-05-15 12:31:00,69.8,61.9,29.74,SSW,212,5.0,5.0,76,0.00,,,0.02,Wunderground v.1.15,2013-05-15 17:31:00,
2013-05-15 12:32:00,69.8,61.5,29.73,SSW,212,5.0,5.0,75,0.00,,,0.02,Wunderground v.1.15,2013-05-15 17:32:00,
2013-05-15 12:33:00,69.7,61.4,29.73,SSW,212,5.0,5.0,75,0.00,,,0.02,Wunderground v.1.15,2013-05-15 17:33:00,
2013-05-15 12:36:00,69.6,60.9,29.73,SSW,212,5.0,9.0,74,0.00,,,0.02,Wunderground v.1.15,2013-05-15 17:36:00,
2013-05-15 21:08:00,74.6,48.7,29.71,NW,315,4.0,5.0,40,0.00,,,0.02,Wunderground v.1.15,2013-05-16 02:08:00,
2013-05-15 21:10:00,74.7,48.8,29.71,NW,315,4.0,4.0,40,0.00,,,0.02,Wunderground v.1.15,2013-05-16 02:10:00,
2013-05-15 21:11:00,74.7,48.8,29.71,NW,315,4.0,4.0,40,0.00,,,0.02,Wunderground v.1.15,2013-05-16 02:11:00,
2013-05-15 21:15:00,74.9,48.3,29.71,NW,315,4.0,4.0,39,0.00,,,0.02,Wunderground v.1.15,2013-05-16 02:15:00,
2013-05-15 21:16:00,74.9,48.3,29.71,NW,315,4.0,4.0,39,0.00,,,0.02,Wunderground v.1.15,2013-05-16 02:16:00,
2013-05-15 21:18:00,74.9,48.3,29.71,NW,315,3.0,4.0,39,0.00,,,0.02,Wunderground v.1.15,2013-05-16 02:18:00,
2013-05-15 21:20:00,74.9,48.3,29.71,NW,315,3.0,3.0,39,0.00,,,0.02,Wunderground v.1.15,2013-05-16 02:20:00,
2013-05-15 21:24:00,75.0,49.0,29.71,NW,315,2.0,3.0,40,0.00,,,0.02,Wunderground v.1.15,2013-05-16 02:24:00,
2013-05-15 21:25:00,74.9,48.9,29.71,NW,315,2.0,3.0,40,0.00,,,0.02,Wunderground v.1.15,2013-05-16 02:25:00,
2013-05-15 21:26:00,74.9,48.9,29.71,NW,315,2.0,3.0,40,0.00,,,0.02,Wunderground v.1.15,2013-05-16 02:26:00,
2013-05-15 21:29:00,74.9,48.9,29.71,NW,315,2.0,3.0,40,0.00,,,0.02,Wunderground v.1.15,2013-05-16 02:29:00,
2013-05-15 21:31:00,74.9,48.9,29.71,NW,315,1.0,1.0,40,0.00,,,0.02,Wunderground v.1.15,2013-05-16 02:31:00,
2013-05-15 21:33:00,74.9,48.9,29.71,NW,315,1.0,1.0,40,0.00,,,0.02,Wunderground v.1.15,2013-05-16 02:33:00,
2013-05-15 21:34:00,74.8,48.9,29.71,NW,315,1.0,1.0,40,0.00,,,0.02,Wunderground v.1.15,2013-05-16 02:34:00,
2013-05-15 21:39:00,74.4,49.2,29.71,NW,315,1.0,1.0,41,0.00,,,0.02,Wunderground v.1.15,2013-05-16 02:39:00,
2013-05-15 21:41:00,74.3,49.1,29.71,NW,315,1.0,3.0,41,0.00,,,0.02,Wunderground v.1.15,2013-05-16 02:41:00,
2013-05-15 21:43:00,74.2,49.0,29.71,NW,315,1.0,3.0,41,0.00,,,0.02,Wunderground v.1.15,2013-05-16 02:43:00,
2013-05-15 21:44:00,74.2,49.0,29.71,NW,315,2.0,3.0,41,0.00,,,0.02,Wunderground v.1.15,2013-05-16 02:44:00,
2013-05-15 21:49:00,74.1,48.9,29.71,NW,315,2.0,3.0,41,0.00,,,0.02,Wunderground v.1.15,2013-05-16 02:49:00,
2013-05-15 21:50:00,74.1,48.9,29.72,NW,315,2.0,2.0,41,0.00,,,0.02,Wunderground v.1.15,2013-05-16 02:50:00,
2013-05-15 21:51:00,74.1,48.9,29.72,NW,315,2.0,2.0,41,0.00,,,0.02,Wunderground v.1.15,2013-05-16 02:51:00,
2013-05-15 21:52:00,74.1,49.5,29.71,NW,315,2.0,2.0,42,0.00,,,0.02,Wunderground v.1.15,2013-05-16 02:52:00,
2013-05-15 21:55:00,74.1,49.5,29.72,NW,315,1.0,2.0,42,0.00,,,0.02,Wunderground v.1.15,2013-05-16 02:55:00,
2013-05-15 21:58:00,74.2,49.6,29.71,NW,315,0.0,2.0,42,0.00,,,0.02,Wunderground v.1.15,2013-05-16 02:58:00,
2013-05-15 22:02:00,74.1,49.5,29.71,NW,315,0.0,0.0,42,0.00,,,0.02,Wunderground v.1.15,2013-05-16 03:02:00,
2013-05-15 22:03:00,74.0,50.1,29.71,NW,315,0.0,0.0,43,0.00,,,0.02,Wunderground v.1.15,2013-05-16 03:03:00,
2013-05-15 22:04:00,74.0,50.1,29.71,NW,315,0.0,0.0,43,0.00,,,0.02,Wunderground v.1.15,2013-05-16 03:04:00,
2013-05-15 22:06:00,73.8,49.9,29.72,NW,315,0.0,0.0,43,0.00,,,0.02,Wunderground v.1.15,2013-05-16 03:06:00,
2013-05-15 22:09:00,73.6,49.7,29.71,NW,315,0.0,0.0,43,0.00,,,0.02,Wunderground v.1.15,2013-05-16 03:09:00,
2013-05-15 22:11:00,73.5,49.6,29.72,NW,315,0.0,0.0,43,0.00,,,0.02,Wunderground v.1.15,2013-05-16 03:11:00,
2013-05-15 22:12:00,73.5,49.6,29.72,NW,315,0.0,0.0,43,0.00,,,0.02,Wunderground v.1.15,2013-05-16 03:12:00,
2013-05-15 22:14:00,73.5,49.6,29.72,NW,315,0.0,0.0,43,0.00,,,0.02,Wunderground v.1.15,2013-05-16 03:14:00,
2013-05-15 22:18:00,73.5,50.2,29.72,NW,315,0.0,1.0,44,0.00,,,0.02,Wunderground v.1.15,2013-05-16 03:18:00,
2013-05-15 22:20:00,73.5,50.2,29.72,NW,315,0.0,1.0,44,0.00,,,0.02,Wunderground v.1.15,2013-05-16 03:20:00,
2013-05-15 22:21:00,73.5,50.2,29.72,NW,315,1.0,4.0,44,0.00,,,0.02,Wunderground v.1.15,2013-05-16 03:21:00,
2013-05-15 22:25:00,72.9,50.3,29.72,NW,315,2.0,4.0,45,0.00,,,0.02,Wunderground v.1.15,2013-05-16 03:25:00,
2013-05-15 22:27:00,72.4,49.9,29.72,NW,315,2.0,4.0,45,0.00,,,0.02,Wunderground v.1.15,2013-05-16 03:27:00,
2013-05-15 22:28:00,72.1,50.2,29.72,NW,315,2.0,4.0,46,0.00,,,0.02,Wunderground v.1.15,2013-05-16 03:28:00,
2013-05-15 22:30:00,71.7,49.8,29.72,NW,315,2.0,3.0,46,0.00,,,0.02,Wunderground v.1.15,2013-05-16 03:30:00,
2013-05-15 22:31:00,71.6,49.7,29.72,NW,315,2.0,3.0,46,0.00,,,0.02,Wunderground v.1.15,2013-05-16 03:31:00,
2013-05-15 22:37:00,70.8,49.6,29.72,NW,315,3.0,3.0,47,0.00,,,0.02,Wunderground v.1.15,2013-05-16 03:37:00,
2013-05-15 22:38:00,70.7,50.0,29.72,NW,315,3.0,4.0,48,0.00,,,0.02,Wunderground v.1.15,2013-05-16 03:38:00,
2013-05-15 22:40:00,70.7,50.0,29.71,NW,315,3.0,3.0,48,0.00,,,0.02,Wunderground v.1.15,2013-05-16 03:40:00,
2013-05-15 22:42:00,70.7,50.0,29.71,NW,315,3.0,4.0,48,0.00,,,0.02,Wunderground v.1.15,2013-05-16 03:42:00,
2013-05-15 22:44:00,70.6,50.5,29.71,NW,315,3.0,4.0,49,0.00,,,0.02,Wunderground v.1.15,2013-05-16 03:44:00,
2013-05-15 22:45:00,70.5,51.0,29.71,NW,315,4.0,4.0,50,0.00,,,0.02,Wunderground v.1.15,2013-05-16 03:45:00,
2013-05-15 22:48:00,70.3,50.2,29.71,NW,316,4.0,6.0,49,0.00,,,0.02,Wunderground v.1.15,2013-05-16 03:48:00,
2013-05-15 22:49:00,70.3,50.2,29.71,NW,316,4.0,6.0,49,0.00,,,0.02,Wunderground v.1.15,2013-05-16 03:49:00,
2013-05-15 22:51:00,70.1,50.6,29.71,NNW,335,5.0,7.0,50,0.00,,,0.02,Wunderground v.1.15,2013-05-16 03:51:00,
2013-05-15 22:55:00,70.1,50.6,29.71,NNW,344,6.0,7.0,50,0.00,,,0.02,Wunderground v.1.15,2013-05-16 03:55:00,
2013-05-15 22:57:00,70.1,50.0,29.71,NNW,346,6.0,7.0,49,0.00,,,0.02,Wunderground v.1.15,2013-05-16 03:57:00,
2013-05-15 22:59:00,70.1,50.6,29.71,NNW,348,7.0,7.0,50,0.00,,,0.02,Wunderground v.1.15,2013-05-16 03:59:00,
2013-05-15 23:00:00,70.1,50.6,29.71,North,349,7.0,7.0,50,0.00,,,0.02,Wunderground v.1.15,2013-05-16 04:00:00,
2013-05-15 23:01:00,70.1,50.6,29.71,North,350,7.0,8.0,50,0.00,,,0.02,Wunderground v.1.15,2013-05-16 04:01:00,
2013-05-15 23:02:00,70.0,50.5,29.71,North,355,7.0,8.0,50,0.00,,,0.02,Wunderground v.1.15,2013-05-16 04:02:00,
2013-05-15 23:04:00,69.9,50.4,29.71,North,355,7.0,8.0,50,0.00,,,0.02,Wunderground v.1.15,2013-05-16 04:04:00,
2013-05-15 23:06:00,69.9,50.4,29.71,North,355,7.0,8.0,50,0.00,,,0.02,Wunderground v.1.15,2013-05-16 04:06:00,
2013-05-15 23:07:00,69.8,49.8,29.71,North,355,7.0,8.0,49,0.00,,,0.02,Wunderground v.1.15,2013-05-16 04:07:00,
2013-05-15 23:09:00,69.7,50.2,29.71,North,355,7.0,8.0,50,0.00,,,0.02,Wunderground v.1.15,2013-05-16 04:09:00,
2013-05-15 23:10:00,69.7,50.2,29.71,North,355,7.0,7.0,50,0.00,,,0.02,Wunderground v.1.15,2013-05-16 04:10:00,
2013-05-15 23:12:00,69.7,50.2,29.71,North,355,7.0,7.0,50,0.00,,,0.02,Wunderground v.1.15,2013-05-16 04:12:00,
2013-05-15 23:14:00,69.5,51.1,29.72,North,360,6.0,7.0,52,0.00,,,0.02,Wunderground v.1.15,2013-05-16 04:14:00,
2013-05-15 23:16:00,69.3,50.9,29.71,North,360,5.0,7.0,52,0.00,,,0.02,Wunderground v.1.15,2013-05-16 04:16:00,
2013-05-15 23:18:00,69.0,50.6,29.71,North,5,5.0,7.0,52,0.00,,,0.02,Wunderground v.1.15,2013-05-16 04:18:00,
2013-05-15 23:21:00,68.5,50.7,29.71,North,5,5.0,5.0,53,0.00,,,0.02,Wunderground v.1.15,2013-05-16 04:21:00,
2013-05-15 23:22:00,68.3,50.5,29.71,North,5,5.0,5.0,53,0.00,,,0.02,Wunderground v.1.15,2013-05-16 04:22:00,
2013-05-15 23:23:00,68.2,50.9,29.71,North,9,5.0,6.0,54,0.00,,,0.02,Wunderground v.1.15,2013-05-16 04:23:00,
2013-05-15 23:28:00,67.6,50.4,29.71,NNE,16,6.0,8.0,54,0.00,,,0.02,Wunderground v.1.15,2013-05-16 04:28:00,
2013-05-15 23:29:00,67.6,50.9,29.70,NNE,16,6.0,8.0,55,0.00,,,0.02,Wunderground v.1.15,2013-05-16 04:29:00,
2013-05-15 23:31:00,67.5,50.8,29.71,NNE,16,6.0,6.0,55,0.00,,,0.02,Wunderground v.1.15,2013-05-16 04:31:00,
2013-05-15 23:34:00,67.1,50.9,29.71,NNE,16,6.0,6.0,56,0.00,,,0.02,Wunderground v.1.15,2013-05-16 04:34:00,
2013-05-15 23:35:00,67.0,50.8,29.71,NNE,16,5.0,6.0,56,0.00,,,0.02,Wunderground v.1.15,2013-05-16 04:35:00,
2013-05-15 23:36:00,66.8,50.6,29.71,NNE,16,5.0,6.0,56,0.00,,,0.02,Wunderground v.1.15,2013-05-16 04:36:00,
2013-05-15 23:38:00,66.5,50.8,29.71,NNE,16,4.0,6.0,57,0.00,,,0.02,Wunderground v.1.15,2013-05-16 04:38:00,
2013-05-15 23:39:00,66.3,50.6,29.71,NNE,16,4.0,6.0,57,0.00,,,0.02,Wunderground v.1.15,2013-05-16 04:39:00,
2013-05-15 23:40:00,66.2,50.5,29.71,NNE,16,4.0,4.0,57,0.00,,,0.02,Wunderground v.1.15,2013-05-16 04:40:00,
2013-05-15 23:42:00,65.8,51.1,29.71,NNE,16,3.0,4.0,59,0.00,,,0.02,Wunderground v.1.15,2013-05-16 04:42:00,
2013-05-15 23:44:00,65.5,50.8,29.71,NNE,16,3.0,4.0,59,0.00,,,0.02,Wunderground v.1.15,2013-05-16 04:44:00,
2013-05-15 23:48:00,65.2,51.0,29.71,NNE,16,3.0,4.0,60,0.00,,,0.02,Wunderground v.1.15,2013-05-16 04:48:00,
2013-05-15 23:49:00,65.1,50.9,29.71,NNE,16,3.0,4.0,60,0.00,,,0.02,Wunderground v.1.15,2013-05-16 04:49:00,
2013-05-15 23:51:00,65.0,50.8,29.71,NNE,16,3.0,3.0,60,0.00,,,0.02,Wunderground v.1.15,2013-05-16 04:51:00,
2013-05-15 23:52:00,64.9,50.7,29.71,NNE,16,3.0,3.0,60,0.00,,,0.02,Wunderground v.1.15,2013-05-16 04:52:00,
2013-05-15 23:53:00,64.9,51.1,29.71,NNE,16,3.0,3.0,61,0.00,,,0.02,Wunderground v.1.15,2013-05-16 04:53:00,
2013-05-15 23:55:00,64.8,51.0,29.71,NNE,16,3.0,3.0,61,0.00,,,0.02,Wunderground v.1.15,2013-05-16 04:55:00,
2013-05-15 23:57:00,64.7,50.9,29.72,NNE,16,3.0,3.0,61,0.00,,,0.00,Wunderground v.1.15,2013-05-16 04:57:00,
2013-05-15 23:58:00,64.7,50.9,29.71,NNE,16,3.0,3.0,61,0.00,,,0.00,Wunderground v.1.15,2013-05-16 04:58:00,